Dane County Regional Airport (Madison, WI) (MSN)


Airport Diagram
Current Weather/Forecast (VFR Conditions)
METAR KMSN 201553Z 19009KT 10SM BKN250 M12/M15 A3011 RMK AO2 SLP215 T11171150
TAF KMSN 201520Z 2015/2112 19008KT P6SM BKN200 FM201700 20012G21KT P6SM BKN200 FM202300 22016G25KT P6SM BKN180 FM210600 27010KT P6SM FEW250

All Charts
General
Chart Name Download
AIRPORT DIAGRAM
TAKEOFF MINIMUMS
ALTERNATE MINIMUMS
HOT SPOT
LAHSO

Approaches
Chart Name Download
ILS OR LOC RWY 18
ILS OR LOC RWY 21
ILS OR LOC/DME RWY 36
ILS RWY 36 (SA CAT I)
ILS RWY 18 (SA CAT I - II)
ILS RWY 36 (CAT II - III)
RNAV (GPS) RWY 03
RNAV (GPS) RWY 14
RNAV (GPS) RWY 18
RNAV (GPS) RWY 21
RNAV (GPS) RWY 32
RNAV (GPS) RWY 36
VOR RWY 14
VOR RWY 32
HI-TACAN RWY 18
HI-TACAN RWY 36